GW1976 Weather Reports


time (UTC)temp
F
wind
direction
speed
knots
gust
knots
rain 1hr
in
rain 24hr
in
rain mn
in
humidity
%
barometer
mb
20260506211532 45 137 3.5 7.0 0.01 0.22 0.14 97 1007.7
20260506210035 46 135 3.5 6.1 0.00 0.21 0.13 97 1007.3
20260506204538 46 123 3.5 7.8 0.00 0.27 0.13 96 1007.1
20260506203034 46 150 4.3 9.6 0.00 0.27 0.13 96 1006.7
20260506201531 48 137 2.6 6.1 0.00 0.27 0.13 96 1006.7
20260506200035 49 105 2.6 8.7 0.00 0.27 0.13 95 1006.7
20260506194538 52 133 3.5 7.8 0.00 0.27 0.13 94 1006.1
20260506193032 55 128 1.7 6.1 0.00 0.27 0.13 97 1006.1
20260506191532 55 47 1.7 7.8 0.00 0.27 0.13 96 1006.2
20260506190031 55 342 1.7 7.0 0.00 0.27 0.13 97 1006.2
20260506184532 55 93 1.7 8.7 0.00 0.27 0.13 97 1006.2
20260506183033 55 42 1.7 7.8 0.00 0.27 0.13 97 1006.2
20260506181531 55 41 1.7 6.1 0.01 0.27 0.13 97 1006.1
20260506180033 55 83 2.6 10.4 0.01 0.27 0.13 97 1006.3
20260506174532 55 86 2.6 7.8 0.01 0.27 0.13 97 1006.1
20260506173046 55 45 2.6 6.1 0.01 0.27 0.13 97 1006.4
20260506171535 55 20 2.6 6.1 0.00 0.26 0.12 97 1006.5
20260506170032 54 41 0.9 10.4 0.00 0.26 0.12 97 1006.7
20260506164531 54 298 0.9 7.8 0.01 0.26 0.12 97 1006.7
20260506163030 54 9 1.7 8.7 0.01 0.26 0.12 97 1006.7
20260506161532 54 34 1.7 8.7 0.01 0.26 0.12 97 1006.7
20260506160040 54 28 2.6 8.7 0.01 0.26 0.12 97 1006.8
20260506154532 54 84 1.7 7.8 0.01 0.25 0.11 97 1007.0
20260506153032 54 47 1.7 9.6 0.01 0.25 0.11 96 1006.9
20260506151531 54 61 2.6 8.7 0.01 0.25 0.11 97 1007.0
20260506150030 54 24 1.7 7.0 0.02 0.25 0.11 97 1007.0
20260506144537 53 309 1.7 6.1 0.01 0.24 0.10 97 1006.9
20260506143035 53 301 1.7 6.1 0.01 0.24 0.10 96 1006.8
20260506141532 52 319 1.7 6.1 0.02 0.24 0.10 96 1006.9
20260506140035 52 266 1.7 6.1 0.01 0.23 0.09 96 1007.0
20260506134530 52 298 0.9 2.6 0.02 0.23 0.09 95 1007.4
20260506133034 52 17 0.9 2.6 0.02 0.23 0.09 95 1007.7
20260506131544 52 0 0.9 2.6 0.02 0.22 0.08 95 1008.3
20260506130038 52 0 0.9 3.5 0.02 0.22 0.08 95 1008.1
20260506124532 52 309 0.9 3.5 0.01 0.21 0.07 94 1007.7
20260506123046 52 23 0.9 3.5 0.02 0.21 0.07 94 1007.7
20260506121531 52 79 0.9 3.5 0.01 0.20 0.06 93 1007.7
20260506120030 52 13 1.7 4.3 0.02 0.20 0.06 93 1007.7
20260506114530 52 24 0.9 5.2 0.03 0.20 0.06 93 1007.5
20260506113032 52 9 1.7 4.3 0.03 0.19 0.05 92 1008.0
20260506111529 52 9 1.7 5.2 0.03 0.18 0.04 92 1008.2
20260506110034 53 57 0.9 5.2 0.03 0.18 0.04 91 1008.2
20260506104534 53 57 1.7 4.3 0.03 0.17 0.03 90 1008.1
20260506103038 53 47 1.7 3.5 0.02 0.16 0.02 89 1007.9
20260506101533 53 47 1.7 3.5 0.01 0.15 0.01 88 1007.6
20260506100036 54 26 1.7 2.6 0.01 0.15 0.01 86 1007.6
20260506094538 55 16 0.9 3.5 0.00 0.14 0.00 82 1007.4
20260506093038 56 0 0.9 3.5 0.00 0.14 0.00 80 1007.5
20260506091533 55 51 0.9 3.5 0.00 0.14 0.00 80 1007.4
20260506090032 55 64 1.7 2.6 0.00 0.14 0.00 82 1007.6
20260506084532 55 32 1.7 6.1 0.00 0.14 0.00 85 1007.7
20260506083031 54 25 1.7 5.2 0.00 0.14 0.00 90 1007.2
20260506081534 53 342 1.7 6.1 0.00 0.14 0.00 96 1007.3
20260506073030 52 294 2.6 6.1 0.00 0.14 0.00 97 1007.7
20260506071535 52 317 2.6 6.1 0.00 0.14 0.00 97 1007.8
20260506061530 52 283 0.9 2.6 0.00 0.14 0.00 96 1008.2
20260506044530 53 202 0.9 2.6 0.00 0.14 0.00 96 1009.3
20260506043032 53 205 0.9 2.6 0.00 0.14 0.00 96 1009.6
20260506041534 54 178 1.7 3.5 0.00 0.14 0.00 96 1009.6
20260506040033 54 178 0.9 4.3 0.00 0.14 0.00 95 1009.6
20260506034530 55 198 0.9 4.3 0.01 0.14 0.14 96 1009.6
20260506033034 55 193 1.7 4.3 0.01 0.14 0.14 95 1009.7
20260506031533 55 142 0.9 3.5 0.02 0.14 0.14 95 1009.6
20260506030035 56 171 1.7 3.5 0.03 0.14 0.14 94 1009.6
20260506024544 56 149 0.9 3.5 0.04 0.13 0.13 94 1009.5
20260506023035 57 128 0.9 3.5 0.04 0.13 0.13 92 1009.5
20260506021534 58 251 0.0 3.5 0.03 0.12 0.12 90 1009.3
20260506020030 59 153 0.0 3.5 0.02 0.11 0.11 87 1009.1
20260506014536 60 51 1.7 4.3 0.00 0.09 0.09 82 1009.2
20260506013035 59 105 0.9 2.6 0.00 0.09 0.09 84 1009.3
20260506011535 58 0 0.0 1.7 0.00 0.09 0.09 87 1008.9
20260506010035 58 0 0.0 1.7 0.00 0.09 0.09 89 1008.9
20260506004531 58 316 0.9 1.7 0.00 0.09 0.09 88 1008.7
20260506003035 59 325 0.9 2.6 0.00 0.09 0.09 86 1008.6
20260506001538 58 22 0.9 5.2 0.00 0.09 0.09 87 1008.6
20260506000036 58 344 1.7 3.5 0.00 0.09 0.09 88 1008.4
20260505234535 58 34 0.9 2.6 0.01 0.09 0.09 89 1008.3
20260505233029 58 9 0.9 2.6 0.01 0.09 0.09 91 1008.3
20260505231530 57 51 0.9 2.6 0.01 0.09 0.09 92 1008.1
20260505230047 58 68 0.9 2.6 0.01 0.09 0.09 93 1008.3
20260505224529 58 9 1.7 3.5 0.00 0.08 0.08 93 1008.3
20260505223028 58 34 0.9 2.6 0.00 0.08 0.08 91 1007.9
20260505221530 58 254 0.9 2.6 0.01 0.08 0.08 91 1007.6
20260505220032 59 246 1.7 3.5 0.02 0.08 0.08 92 1007.5
20260505214533 59 298 1.7 5.2 0.03 0.08 0.08 93 1007.9
20260505213030 58 279 0.0 2.6 0.06 0.08 0.08 94 1007.8